Location: Agadir Mansour Mhndou
(31.2424°N, 8.7730°W)
Time: 18:06:59
(UTC+00:00)

Cosmos 2123 Rocket - Pass Details

Date: 16 October 2021
Orbit: 961 x 992 km, 82.9° (Epoch: 07 December)

Event Time Altitude Azimuth Distance (km) Brightness Sun altitude
Rises 19:47:23 0° 354° (N) 3,710 7.2 -23.3°
Reaches altitude 10° 19:49:55 10° 354° (N) 2,757 6.5 -23.8°
Maximum altitude 19:56:16 89° 271° (W) 993 3.9 -25.2°
Drops below altitude 10° 20:02:33 10° 176° (S) 2,729 6.2 -26.5°
Sets 20:05:02 0° 176° (S) 3,669 6.9 -27.0°
